Location: Feydey
(46.3431°N, 7.0106°E)
Time: 15:36:55
(UTC+00:00)

Cosmos 1315 Rocket - Pass Details

Date: 20 June 2021
Orbit: 528 x 568 km, 81.2° (Epoch: 03 August)

Event Time Altitude Azimuth Distance (km) Brightness Sun altitude
Rises 19:59:14 0° 344° (NNW) 2,782 7.5 -5.0°
Reaches altitude 10° 20:01:28 10° 340° (NNW) 1,878 6.7 -5.3°
Maximum altitude 20:05:31 53° 264° (W) 701 3.7 -5.8°
Drops below altitude 10° 20:09:29 10° 187° (S) 1,849 5.2 -6.3°
Sets 20:11:41 0° 183° (S) 2,734 6.0 -6.6°
